DW2973 Weather Reports


time (UTC)temp
C
wind
direction
speed
KPH
gust
KPH
rain 1hr
cm
rain 24hr
cm
rain mn
cm
humidity
%
barometer
mb
20260904193039 13 244 0.0 0.0 0.00 0.00 0.05 93 998.6
20260904191532 13 204 0.0 0.0 0.00 0.00 0.05 93 998.7
20260904190031 13 257 0.0 0.0 0.00 0.00 0.05 92 998.4
20260904184529 14 234 1.6 0.0 0.00 0.00 0.05 92 998.4
20260904183028 14 244 0.0 0.0 0.00 0.00 0.05 92 998.2
20260904181527 14 225 0.0 0.0 0.00 0.00 0.05 91 998.2
20260904180026 15 226 0.0 0.0 0.00 0.00 0.05 92 998.1
20260904174526 15 226 0.0 0.0 0.00 0.00 0.05 92 997.9
20260904173025 15 224 0.0 0.0 0.00 0.00 0.05 91 998.0
20260904171550 15 226 0.0 0.0 0.00 0.00 0.05 91 998.3
20260904170025 15 227 0.0 0.0 0.00 0.00 0.05 91 998.0
20260904164524 15 281 0.0 0.0 0.00 0.00 0.05 91 997.8
20260904163040 15 306 1.6 0.0 0.00 0.00 0.05 92 997.8
20260904161522 16 253 0.0 0.0 0.00 0.00 0.05 92 998.0
20260904160022 16 218 0.0 0.0 0.00 0.00 0.05 92 998.0
20260904154522 16 220 0.0 0.0 0.00 0.00 0.05 92 998.2
20260904153029 16 220 0.0 0.0 0.00 0.00 0.05 92 998.1
20260904151534 16 246 0.0 0.0 0.00 0.00 0.05 92 998.0
20260904150022 16 259 1.6 0.0 0.00 0.00 0.05 93 997.9
20260904144520 16 239 0.0 0.0 0.00 0.00 0.05 93 998.2
20260904143017 16 246 0.0 0.0 0.00 0.00 0.05 93 998.2
20260904141517 15 222 0.0 0.0 0.00 0.00 0.05 94 998.3
20260904140016 15 286 0.0 0.0 0.00 0.00 0.05 93 998.1
20260904134520 14 286 0.0 0.0 0.00 0.00 0.05 93 998.3
20260904133013 14 286 0.0 0.0 0.00 0.00 0.05 93 998.4
20260904131511 14 287 0.0 0.0 0.00 0.00 0.05 92 998.5
20260904130010 15 287 0.0 0.0 0.00 0.00 0.05 92 998.7
20260904124510 15 227 0.0 0.0 0.00 0.00 0.05 92 998.6
20260904123008 15 227 0.0 0.0 0.00 0.00 0.03 92 998.5
20260904121506 15 227 0.0 0.0 0.00 0.00 0.03 92 998.9
20260904120005 15 223 0.0 0.0 0.00 0.00 0.03 92 999.2
20260904114502 15 215 1.6 0.0 0.00 0.00 0.03 92 999.4
20260904113001 15 218 3.2 0.0 0.00 0.00 0.03 92 999.6
20260904111602 15 225 3.2 0.0 0.00 0.00 0.03 92 999.5
20260904110100 16 229 3.2 0.0 0.00 0.00 0.03 92 999.4
20260904104559 16 234 4.8 0.0 0.00 0.00 0.03 92 999.6
20260904103057 16 230 3.2 0.0 0.00 0.00 0.03 91 999.6
20260904101555 16 223 6.4 0.0 0.00 0.00 0.03 91 1000.0
20260904100053 16 230 6.4 0.0 0.00 0.00 0.03 91 1000.3
20260904094554 16 223 4.8 0.0 0.00 0.00 0.03 91 1000.3
20260904093050 15 228 4.8 0.0 0.00 0.00 0.03 91 1000.7
20260904091548 15 232 1.6 0.0 0.00 0.00 0.03 90 1001.0
20260904090046 15 239 3.2 0.0 0.00 0.00 0.03 90 1001.4
20260904084554 15 225 3.2 0.0 0.00 0.00 0.03 90 1001.4
20260904083042 15 221 1.6 0.0 0.00 0.00 0.03 90 1001.8
20260904081541 15 221 3.2 0.0 0.00 0.00 0.03 89 1001.8
20260904080100 15 229 3.2 0.0 0.00 0.00 0.03 89 1001.9
20260904074538 15 233 3.2 0.0 0.00 0.00 0.03 90 1002.0
20260904073037 15 227 1.6 0.0 0.00 0.00 0.03 90 1002.1
20260904071535 15 232 1.6 0.0 0.00 0.00 0.03 90 1002.3
20260904070136 15 229 0.0 0.0 0.00 0.00 0.03 90 1002.4
20260904064532 15 229 0.0 0.0 0.00 0.00 0.03 90 1002.8
20260904063030 15 229 0.0 0.0 0.00 0.00 0.03 90 1002.9
20260904061528 14 229 0.0 0.0 0.00 0.00 0.03 89 1003.2
20260904060027 15 229 0.0 0.0 0.00 0.00 0.03 89 1003.3
20260904054533 15 224 0.0 0.0 0.00 0.00 0.03 88 1003.4
20260904053027 15 246 0.0 0.0 0.00 0.00 0.03 88 1003.8
20260904051522 15 227 0.0 0.0 0.00 0.00 0.03 87 1003.9
20260904050022 15 227 0.0 0.0 0.00 0.00 0.00 87 1003.9
20260904044531 15 225 0.0 0.0 0.00 0.00 0.00 86 1004.0
20260904043034 15 245 0.0 0.0 0.00 0.00 0.00 86 1004.0
20260904041520 15 222 0.0 0.0 0.00 0.00 0.00 86 1003.9
20260904040019 15 227 1.6 0.0 0.00 0.00 0.00 86 1003.7
20260904034517 15 244 0.0 0.0 0.00 0.00 0.00 86 1004.1
20260904033027 15 250 1.6 0.0 0.00 0.00 0.00 86 1004.4
20260904031515 15 309 0.0 0.0 0.00 0.00 0.00 86 1004.4
20260904030014 15 255 0.0 0.0 0.00 0.00 0.00 87 1004.7
20260904024514 15 219 1.6 0.0 0.00 0.00 0.00 87 1004.4
20260904023011 15 223 0.0 0.0 0.00 0.00 0.00 87 1004.7
20260904021510 15 257 0.0 0.0 0.00 0.00 0.00 88 1004.7
20260904020009 15 234 1.6 0.0 0.00 0.00 0.00 88 1005.0
20260904014512 15 288 1.6 0.0 0.00 0.00 0.00 88 1005.1
20260904013007 15 245 1.6 0.0 0.00 0.00 0.00 89 1005.1
20260904011507 15 230 0.0 0.0 0.00 0.00 0.00 89 1005.1
20260904010011 15 233 1.6 0.0 0.00 0.00 0.00 89 1005.2
20260904004504 15 236 1.6 0.0 0.00 0.00 0.00 89 1005.3
20260904003003 15 226 1.6 0.0 0.00 0.00 0.00 89 1005.4
20260904001505 15 215 0.0 0.0 0.00 0.00 0.00 89 1005.6
20260904000003 15 216 1.6 0.0 0.00 0.00 0.00 88 1005.4
20260903234559 16 296 1.6 0.0 0.00 0.00 0.00 89 1005.5
20260903233058 16 213 1.6 0.0 0.00 0.00 0.00 89 1005.7
20260903231602 16 245 0.0 0.0 0.00 0.00 0.00 89 1005.6
20260903230057 16 230 0.0 0.0 0.00 0.00 0.00 89 1005.6
20260903224601 16 286 1.6 0.0 0.00 0.00 0.00 89 1005.7
20260903223055 16 238 1.6 0.0 0.00 0.00 0.00 89 1005.9
20260903221555 16 250 1.6 0.0 0.00 0.00 0.00 89 1006.0
20260903220053 16 206 0.0 0.0 0.00 0.00 0.00 89 1005.8
20260903214603 16 236 1.6 0.0 0.00 0.00 0.08 88 1005.7
20260903213052 16 238 1.6 0.0 0.00 0.00 0.05 88 1005.8
20260903211554 16 257 1.6 0.0 0.00 0.00 0.05 89 1005.8
20260903210107 16 267 1.6 0.0 0.00 0.00 0.05 88 1005.8
20260903204601 16 287 0.0 0.0 0.00 0.00 0.05 89 1005.8
20260903203051 16 240 0.0 0.0 0.00 0.00 0.05 89 1006.0
20260903201549 16 286 0.0 0.0 0.00 0.00 0.05 89 1005.7
20260903200104 16 260 0.0 0.0 0.00 0.00 0.05 89 1005.8
20260903194548 16 217 1.6 0.0 0.00 0.00 0.05 89 1005.8